Weather History for Amsterdam, Netherlands

Change the Weather History Date:

Friday, December 21, 2012

  Actual Average Record
Temperature  
Mean Temperature 41 °F -  
Max Temperature 46 °F 41 °F 50 °F (2008)
Min Temperature 36 °F 33 °F 8 °F (2010)
Degree Days  
Heating Degree Days 24    
Moisture  
Dew Point 40 °F    
Average Humidity 98    
Maximum Humidity 100    
Minimum Humidity 92    
Precipitation  
Precipitation 0.01 in - - ()
Sea Level Pressure  
Sea Level Pressure 29.80 in    
Wind  
Wind Speed 9 mph ()    
Max Wind Speed 18 mph    
Max Gust Speed -    
Visibility 1.6 miles    
Events Fog , Rain , Snow    
Averages and records for this station are not official NWS values.
T = Trace of Precipitation, MM = Missing Value Source: Averaged Metar Reports

Daily Weather History Graph

Daily Weather History Graph

Search for Another Location

Airport:

Trip Planner

Search our weather history database for the weather conditions in past years. The results will help you decide how hot, cold, wet, or windy it might be!

Date:

Astronomy

Dec. 21, 2012 Rise Set
Actual Time 8:48 AM CET 4:29 PM CET
Civil Twilight 8:07 AM CET 5:11 PM CET
Nautical Twilight 7:22 AM CET 5:55 PM CET
Astronomical Twilight 6:41 AM CET 6:36 PM CET
Moon 12:41 PM CET (12/21) 1:44 AM CET (12/21)
Length of Visible Light 9h 04m
Length of Day
7h 41m
Waxing Gibbous, 62% of the Moon is Illuminated
Dec 21
Waxing Gibbous
Dec 28
Full
Jan 5
Last Quarter
Jan 11
New
Jan 19
First Quarter

Hourly Weather History & Observations

Time (CET) Temp. Windchill Dew Point Humidity Pressure Visibility Wind Dir Wind Speed Gust Speed Precip Events Conditions
12:25 AM 37.4 °F 28.2 °F 35.6 °F 93% 29.71 in 3.1 mi ESE 16.1 mph - N/A Rain Light Rain
12:55 AM 37.4 °F 28.2 °F 35.6 °F 93% 29.71 in 2.5 mi ESE 16.1 mph - N/A Rain Rain
1:00 AM 37 °F - 35 °F 92% 29.72 in 3 mi ESE 17.9 mph - - Rain Light Rain
1:25 AM 37.4 °F 28.2 °F 35.6 °F 93% 29.71 in 2.5 mi ESE 16.1 mph - N/A Rain Light Drizzle
1:55 AM 37.4 °F 28.9 °F 35.6 °F 93% 29.71 in 1.7 mi ESE 13.8 mph - N/A Rain , Snow Light Rain
2:25 AM 37.4 °F 28.9 °F 35.6 °F 93% 29.71 in 1.8 mi ESE 13.8 mph - N/A Rain Light Rain
2:55 AM 37.4 °F 29.3 °F 35.6 °F 93% 29.71 in 2.5 mi ESE 12.7 mph - N/A   Light Drizzle
3:25 AM 37.4 °F 29.3 °F 35.6 °F 93% 29.71 in 1.6 mi ESE 12.7 mph - N/A   Drizzle
3:55 AM 37.4 °F 29.3 °F 35.6 °F 93% 29.71 in - ESE 12.7 mph - N/A   Light Drizzle
4:00 AM 37 °F - 36 °F 95% 29.72 in 2 mi ESE 11.2 mph - - Rain Rain
4:25 AM 37.4 °F 30.3 °F 35.6 °F 93% 29.71 in - ESE 10.4 mph - N/A   Light Drizzle
4:55 AM 37.4 °F 30.3 °F 35.6 °F 93% 29.71 in 1.6 mi ESE 10.4 mph - N/A   Light Drizzle
5:25 AM 37.4 °F 32.1 °F 37.4 °F 100% 29.71 in 2.2 mi SE 6.9 mph - N/A   Light Drizzle
5:55 AM 37.4 °F 30.3 °F 37.4 °F 100% 29.71 in 3.1 mi ESE 10.4 mph - N/A   Overcast
6:25 AM 37.4 °F 30.8 °F 37.4 °F 100% 29.71 in 3.1 mi ESE 9.2 mph - N/A   Overcast
6:55 AM 37.4 °F 31.4 °F 37.4 °F 100% 29.71 in 3.1 mi ESE 8.1 mph - N/A   Overcast
7:00 AM 38 °F - 37 °F 93% 29.73 in 3 mi ESE 8.9 mph - -   Mist
7:25 AM 37.4 °F 30.3 °F 37.4 °F 100% 29.71 in - ESE 10.4 mph - N/A   Light Drizzle
7:55 AM 37.4 °F 30.8 °F 37.4 °F 100% 29.71 in 1.6 mi ESE 9.2 mph - N/A   Light Drizzle
8:25 AM 37.4 °F 31.4 °F 37.4 °F 100% 29.74 in 1.1 mi ESE 8.1 mph - N/A   Overcast
8:55 AM 37.4 °F 32.8 °F 37.4 °F 100% 29.74 in 0.7 mi ESE 5.8 mph - N/A Fog Patches of Fog
9:25 AM 37.4 °F 32.8 °F 37.4 °F 100% 29.74 in 0.4 mi ESE 5.8 mph - N/A Fog Fog
9:55 AM 39.2 °F 34.2 °F 39.2 °F 100% 29.77 in 0.2 mi ESE 6.9 mph - N/A Fog Fog
10:00 AM 39 °F - 39 °F 98% 29.78 in 0 mi ESE 6.7 mph - - Fog Fog
10:25 AM 39.2 °F 35.0 °F 39.2 °F 100% 29.77 in 0.2 mi ESE 5.8 mph - N/A Fog , Rain Light Fog
10:55 AM 39.2 °F 33.6 °F 39.2 °F 100% 29.77 in 0.2 mi ESE 8.1 mph - N/A Fog Fog
11:25 AM 39.2 °F 34.2 °F 39.2 °F 100% 29.80 in 0.2 mi ESE 6.9 mph - N/A Fog Fog
11:55 AM 41.0 °F 38.0 °F 41.0 °F 100% 29.80 in 0.1 mi ESE 4.6 mph - N/A Fog Fog
12:25 PM 41.0 °F 37.1 °F 41.0 °F 100% 29.80 in 0.1 mi ESE 5.8 mph - N/A Fog Fog
12:55 PM 41.0 °F 36.4 °F 41.0 °F 100% 29.80 in 0.2 mi SE 6.9 mph - N/A Fog Fog
1:00 PM 41 °F - 41 °F 100% 29.82 in 0 mi SE 6.7 mph - - Fog Fog
1:25 PM 41.0 °F 37.1 °F 41.0 °F 100% 29.80 in 0.2 mi ESE 5.8 mph - N/A Fog Fog
1:55 PM 42.8 °F 39.3 °F 42.8 °F 100% 29.80 in 0.1 mi ESE 5.8 mph - N/A Fog Fog
2:25 PM 42.8 °F 40.1 °F 42.8 °F 100% 29.83 in 0.2 mi SSE 4.6 mph - N/A Fog , Rain Light Fog
2:55 PM 44.6 °F 41.4 °F 44.6 °F 100% 29.83 in - SSE 5.8 mph - N/A Fog Fog
3:25 PM 44.6 °F 42.2 °F 44.6 °F 100% 29.83 in 0.2 mi SE 4.6 mph - N/A Fog Fog
3:55 PM 44.6 °F 42.2 °F 44.6 °F 100% 29.83 in 0.8 mi SE 4.6 mph - N/A   Mostly Cloudy
4:00 PM 44 °F - 44 °F 98% 29.85 in 0 mi SE 4.5 mph - - Fog Fog
4:25 PM 42.8 °F 39.3 °F 42.8 °F 100% 29.83 in 0.7 mi SE 5.8 mph - N/A   Mostly Cloudy
4:55 PM 42.8 °F 40.1 °F 42.8 °F 100% 29.86 in 0.7 mi ESE 4.6 mph - N/A   Mostly Cloudy
5:25 PM 44.6 °F 40.2 °F 44.6 °F 100% 29.86 in 1.0 mi SSE 8.1 mph - N/A   Overcast
5:55 PM 44.6 °F 41.4 °F 44.6 °F 100% 29.86 in 1.9 mi SE 5.8 mph - N/A   Scattered Clouds
6:25 PM 44.6 °F 42.2 °F 44.6 °F 100% 29.86 in 1.6 mi SSE 4.6 mph - N/A   Mostly Cloudy
6:55 PM 44.6 °F 41.4 °F 44.6 °F 100% 29.89 in 1.2 mi SSE 5.8 mph - N/A Rain Mostly Cloudy
7:00 PM 44 °F - 44 °F 100% 29.89 in 1 mi SSE 4.5 mph - -   Mist
7:25 PM 44.6 °F 41.4 °F 44.6 °F 100% 29.89 in 1.4 mi SSE 5.8 mph - N/A Rain Mostly Cloudy
7:55 PM 44.6 °F 41.4 °F 44.6 °F 100% 29.89 in 1.4 mi South 5.8 mph - N/A Rain Mostly Cloudy
8:25 PM 44.6 °F 41.4 °F 44.6 °F 100% 29.89 in 2.2 mi SSW 5.8 mph - N/A   Mostly Cloudy
8:55 PM 44.6 °F 40.7 °F 44.6 °F 100% 29.89 in 2.8 mi South 6.9 mph - N/A   Scattered Clouds
9:25 PM 44.6 °F 40.2 °F 44.6 °F 100% 29.89 in 3.1 mi South 8.1 mph - N/A   Mostly Cloudy
9:55 PM 46.4 °F 41.5 °F 44.6 °F 93% 29.89 in 3.7 mi SSW 10.4 mph - N/A   Scattered Clouds
10:00 PM 45 °F - 44 °F 97% 29.92 in 5 mi SSW 8.9 mph - -   Mist
10:25 PM 44.6 °F 39.7 °F 44.6 °F 100% 29.92 in - SSW 9.2 mph - N/A Rain Rain
10:55 PM 44.6 °F 39.7 °F 44.6 °F 100% 29.92 in 4.3 mi WSW 9.2 mph - N/A Rain Light Rain
11:25 PM 44.6 °F 40.7 °F 44.6 °F 100% 29.92 in 6.2 mi SSW 6.9 mph - N/A   Mostly Cloudy
11:55 PM 44.6 °F 38.8 °F 44.6 °F 100% 29.92 in 1.7 mi SW 11.5 mph - N/A Rain Light Drizzle